| time (UTC) | temp C | wind direction | speed KPH | gust KPH | rain 1hr cm | rain 24hr cm | rain mn cm | humidity % | barometer mb |
| 20260506184529 | 16 | 171 | 12.9 | 29.0 | 0.05 | 0.10 | 0.10 | 90 | 1005.6 |
| 20260506183024 | 16 | 153 | 9.7 | 33.8 | 0.05 | 0.08 | 0.08 | 89 | 1005.6 |
| 20260506181523 | 16 | 186 | 9.7 | 24.1 | 0.08 | 0.08 | 0.08 | 88 | 1005.7 |
| 20260506180027 | 16 | 178 | 8.0 | 24.1 | 0.05 | 0.05 | 0.05 | 87 | 1005.6 |
| 20260506174522 | 17 | 193 | 6.4 | 20.9 | 0.03 | 0.03 | 0.03 | 85 | 1005.6 |
| 20260506173027 | 17 | 159 | 12.9 | 25.7 | 0.03 | 0.03 | 0.03 | 82 | 1006.3 |
| 20260506171520 | 18 | 177 | 9.7 | 27.4 | 0.00 | 0.00 | 0.00 | 79 | 1006.6 |
| 20260506170021 | 18 | 207 | 12.9 | 33.8 | 0.00 | 0.00 | 0.00 | 76 | 1006.7 |
| 20260506164519 | 20 | 203 | 16.1 | 32.2 | 0.00 | 0.00 | 0.00 | 72 | 1006.5 |
| 20260506163025 | 20 | 188 | 8.0 | 24.1 | 0.00 | 0.00 | 0.00 | 71 | 1006.2 |
| 20260506161517 | 20 | 183 | 11.3 | 27.4 | 0.00 | 0.00 | 0.00 | 70 | 1006.4 |
| 20260506160015 | 20 | 171 | 3.2 | 22.5 | 0.00 | 0.00 | 0.00 | 72 | 1006.8 |
| 20260506154510 | 20 | 168 | 8.0 | 24.1 | 0.00 | 0.00 | 0.00 | 72 | 1007.1 |
| 20260506153007 | 19 | 172 | 3.2 | 19.3 | 0.00 | 0.00 | 0.00 | 73 | 1007.2 |
| 20260506151506 | 19 | 168 | 8.0 | 24.1 | 0.00 | 0.00 | 0.00 | 75 | 1007.2 |
| 20260506150002 | 18 | 202 | 9.7 | 22.5 | 0.00 | 0.00 | 0.00 | 76 | 1007.6 |
| 20260506144503 | 18 | 165 | 8.0 | 22.5 | 0.00 | 0.00 | 0.00 | 77 | 1007.7 |
| 20260506143100 | 18 | 251 | 6.4 | 20.9 | 0.00 | 0.00 | 0.00 | 78 | 1007.7 |
| 20260506141558 | 17 | 150 | 11.3 | 20.9 | 0.00 | 0.00 | 0.00 | 79 | 1007.7 |
| 20260506140058 | 17 | 168 | 6.4 | 25.7 | 0.00 | 0.00 | 0.00 | 80 | 1007.7 |
| 20260506134552 | 17 | 157 | 8.0 | 20.9 | 0.00 | 0.00 | 0.00 | 81 | 1007.7 |
| 20260506133049 | 16 | 191 | 6.4 | 20.9 | 0.00 | 0.00 | 0.00 | 82 | 1007.6 |
| 20260506131553 | 16 | 180 | 9.7 | 25.7 | 0.00 | 0.00 | 0.00 | 83 | 1007.8 |
| 20260506130101 | 16 | 159 | 11.3 | 24.1 | 0.00 | 0.00 | 0.00 | 83 | 1007.8 |
| 20260506124554 | 16 | 169 | 12.9 | 24.1 | 0.00 | 0.00 | 0.00 | 83 | 1008.2 |
| 20260506123046 | 16 | 137 | 4.8 | 17.7 | 0.00 | 0.00 | 0.00 | 84 | 1008.2 |
| 20260506121546 | 15 | 196 | 3.2 | 19.3 | 0.00 | 0.00 | 0.00 | 84 | 1008.2 |
| 20260506120046 | 15 | 167 | 8.0 | 24.1 | 0.00 | 0.00 | 0.00 | 84 | 1008.3 |
| 20260506114545 | 15 | 180 | 6.4 | 20.9 | 0.00 | 0.00 | 0.00 | 84 | 1008.2 |
| 20260506113051 | 15 | 210 | 9.7 | 20.9 | 0.00 | 0.00 | 0.00 | 86 | 1008.2 |
| 20260506111543 | 15 | 194 | 9.7 | 17.7 | 0.00 | 0.00 | 0.00 | 87 | 1008.2 |
| 20260506110051 | 14 | 171 | 8.0 | 16.1 | 0.00 | 0.00 | 0.00 | 87 | 1008.6 |
| 20260506104547 | 14 | 195 | 8.0 | 16.1 | 0.00 | 0.00 | 0.00 | 87 | 1008.6 |
| 20260506103045 | 14 | 178 | 6.4 | 19.3 | 0.00 | 0.00 | 0.00 | 87 | 1008.4 |
| 20260506101548 | 14 | 171 | 8.0 | 19.3 | 0.00 | 0.00 | 0.00 | 87 | 1008.2 |
| 20260506100045 | 14 | 161 | 6.4 | 24.1 | 0.00 | 0.00 | 0.00 | 86 | 1008.2 |
| 20260506094528 | 14 | 186 | 8.0 | 22.5 | 0.00 | 0.00 | 0.00 | 86 | 1008.2 |
| 20260506093038 | 14 | 190 | 4.8 | 16.1 | 0.00 | 0.00 | 0.00 | 85 | 1008.2 |
| 20260506091625 | 14 | 180 | 8.0 | 19.3 | 0.00 | 0.00 | 0.00 | 85 | 1008.2 |
| 20260506090025 | 14 | 173 | 11.3 | 19.3 | 0.00 | 0.00 | 0.00 | 84 | 1008.2 |
| 20260506084521 | 14 | 198 | 8.0 | 24.1 | 0.00 | 0.00 | 0.00 | 83 | 1008.2 |
| 20260506083017 | 15 | 203 | 6.4 | 16.1 | 0.00 | 0.00 | 0.00 | 83 | 1008.4 |
| 20260506081515 | 15 | 164 | 8.0 | 17.7 | 0.00 | 0.00 | 0.00 | 82 | 1008.3 |
| 20260506073018 | 15 | 140 | 6.4 | 17.7 | 0.00 | 0.00 | 0.00 | 80 | 1008.3 |
| 20260506071509 | 15 | 178 | 4.8 | 17.7 | 0.00 | 0.00 | 0.00 | 80 | 1008.3 |
| 20260506061600 | 16 | 148 | 8.0 | 27.4 | 0.00 | 0.00 | 0.00 | 77 | 1007.9 |
| 20260506044638 | 17 | 181 | 9.7 | 20.9 | 0.00 | 0.00 | 0.00 | 71 | 1008.3 |
| 20260506043046 | 17 | 186 | 6.4 | 25.7 | 0.00 | 0.00 | 0.00 | 71 | 1008.3 |
| 20260506041556 | 17 | 183 | 6.4 | 24.1 | 0.00 | 0.00 | 0.00 | 71 | 1008.3 |
| 20260506040040 | 17 | 201 | 11.3 | 20.9 | 0.00 | 0.00 | 0.00 | 70 | 1008.3 |
| 20260506034605 | 17 | 159 | 9.7 | 19.3 | 0.00 | 0.00 | 0.00 | 70 | 1008.4 |
| 20260506033039 | 17 | 231 | 12.9 | 22.5 | 0.00 | 0.00 | 0.00 | 69 | 1008.6 |
| 20260506031542 | 17 | 167 | 14.5 | 32.2 | 0.00 | 0.00 | 0.00 | 69 | 1008.6 |
| 20260506030040 | 17 | 165 | 11.3 | 19.3 | 0.00 | 0.00 | 0.00 | 68 | 1008.7 |
| 20260506024539 | 17 | 163 | 6.4 | 19.3 | 0.00 | 0.00 | 0.00 | 68 | 1008.6 |
| 20260506023059 | 17 | 171 | 6.4 | 27.4 | 0.00 | 0.00 | 0.00 | 67 | 1008.4 |
| 20260506021537 | 17 | 168 | 6.4 | 22.5 | 0.00 | 0.00 | 0.00 | 66 | 1008.3 |
| 20260506020039 | 18 | 148 | 11.3 | 27.4 | 0.00 | 0.00 | 0.00 | 65 | 1008.3 |
| 20260506014537 | 18 | 171 | 12.9 | 25.7 | 0.00 | 0.00 | 0.00 | 64 | 1008.3 |
| 20260506013039 | 18 | 176 | 16.1 | 35.4 | 0.00 | 0.00 | 0.00 | 63 | 1008.2 |
| 20260506011536 | 18 | 165 | 9.7 | 25.7 | 0.00 | 0.00 | 0.00 | 63 | 1007.8 |
| 20260506010041 | 19 | 162 | 12.9 | 24.1 | 0.00 | 0.00 | 0.00 | 62 | 1007.7 |
| 20260506004556 | 20 | 206 | 8.0 | 29.0 | 0.00 | 0.00 | 0.00 | 61 | 1007.6 |
| 20260506003044 | 20 | 178 | 9.7 | 25.7 | 0.00 | 0.00 | 0.00 | 61 | 1007.3 |
| 20260506001538 | 20 | 182 | 6.4 | 32.2 | 0.00 | 0.00 | 0.00 | 60 | 1007.2 |
| 20260506000033 | 20 | 161 | 11.3 | 24.1 | 0.00 | 0.00 | 0.00 | 59 | 1006.7 |
| 20260505234554 | 21 | 166 | 11.3 | 33.8 | 0.00 | 0.00 | 0.00 | 58 | 1006.6 |
| 20260505233037 | 21 | 183 | 11.3 | 32.2 | 0.00 | 0.00 | 0.00 | 57 | 1006.3 |
| 20260505231534 | 21 | 189 | 11.3 | 29.0 | 0.00 | 0.00 | 0.00 | 56 | 1006.1 |
| 20260505230039 | 22 | 171 | 16.1 | 37.0 | 0.00 | 0.00 | 0.00 | 55 | 1006.1 |
| 20260505224534 | 22 | 153 | 16.1 | 35.4 | 0.00 | 0.00 | 0.00 | 54 | 1005.7 |
| 20260505223033 | 22 | 185 | 12.9 | 33.8 | 0.00 | 0.00 | 0.00 | 53 | 1005.7 |
| 20260505221530 | 23 | 160 | 16.1 | 33.8 | 0.00 | 0.00 | 0.00 | 52 | 1005.5 |
| 20260505220041 | 23 | 268 | 16.1 | 40.2 | 0.00 | 0.00 | 0.00 | 51 | 1005.5 |
| 20260505214536 | 24 | 183 | 16.1 | 37.0 | 0.00 | 0.00 | 0.00 | 50 | 1005.1 |
| 20260505213028 | 24 | 169 | 16.1 | 37.0 | 0.00 | 0.00 | 0.00 | 50 | 1005.1 |
| 20260505211528 | 25 | 155 | 19.3 | 35.4 | 0.00 | 0.00 | 0.00 | 49 | 1005.2 |
| 20260505210027 | 25 | 169 | 16.1 | 35.4 | 0.00 | 0.00 | 0.00 | 49 | 1005.1 |
| 20260505204527 | 25 | 205 | 19.3 | 46.7 | 0.00 | 0.00 | 0.00 | 48 | 1004.8 |
| 20260505203026 | 26 | 175 | 12.9 | 48.3 | 0.00 | 0.00 | 0.00 | 47 | 1004.7 |
| 20260505201526 | 26 | 153 | 16.1 | 45.1 | 0.00 | 0.00 | 0.00 | 46 | 1004.8 |
| 20260505200026 | 27 | 200 | 17.7 | 38.6 | 0.00 | 0.00 | 0.00 | 44 | 1004.8 |
| 20260505194533 | 27 | 188 | 14.5 | 37.0 | 0.00 | 0.00 | 0.00 | 44 | 1004.7 |
| 20260505193035 | 27 | 196 | 17.7 | 41.8 | 0.00 | 0.00 | 0.00 | 43 | 1004.8 |
| 20260505191527 | 27 | 176 | 11.3 | 41.8 | 0.00 | 0.00 | 0.00 | 45 | 1004.9 |
| 20260505190022 | 27 | 194 | 9.7 | 40.2 | 0.00 | 0.00 | 0.00 | 44 | 1005.1 |